COSMOS 1275 DEB, 14627

Orbit data source: Space-Track

COSMOS 1275 DEB, 14627 is space debris in LEO originally from a launch on Thu, 04 Jun 1981 UTC launched from the Plesetsk Missile And Space Complex (PKMTR). Debris objects in space refer to the collection of defunct objects orbiting the Earth. Examples of debris include non-operational satellites, rocket bodies, and fragments generated from explosions, collisions, or faulty payload assembly.

Loading next visibility...
Identifier
14627, 1981-053JQ
Orbit
LEO
Country
Flag of CISCIS
Related business
Manufacturer
Unknown
Mission
Spacecraft
Bus & Motor
Unknown
Mass
Unknown
Launch date (UTC)
1981-06-04 (45 years ago)
Launch vehicle
Unknown
Launch site
Plesetsk Missile And Space Complex (PKMTR)
Object type
Payload
Rocket body
Debris
Shape & HBR
Unknown shape, 0.1 m
Radar Cross Section
Medium (>0.1 m² and <1 m²)

Expand to show TLE details & history
Last TLE update: 12 hours ago

TLE from 12 hours ago
0 COSMOS 1275 DEB
1 14627U 81053JQ  26235.79726948  .00001256  00000-0  72502-3 0  9990
2 14627  82.7843 351.6040 0036618 162.1889 350.7635 14.08032358170946
Epoch: 2026-08-23T19:08Z
TLE epoch observation values (Epoch: 2026-08-23T19:08:04.083Z)
Latitude
26.92085°
Longitude
-91.16774°
Altitude
843.239 km
Speed
7.447 km/s
True Right ascension
11h 11m 44s
True Declination
26° 47' 02"
Sunlit
Object was in daylight at epoch
Visualization orbit readout
Latitude
Unknown
Longitude
Unknown
Altitude
Unknown
Speed
Unknown
Apparent Right ascension
Unknown
Apparent Declination
Unknown
Sunlit
N/A
Visualization observer readout
Local Sidereal Time
21:53:20
Azimuth
Unknown
Elevation
Unknown
Doppler factor
Unknown
Orbital elements
Apogee altitude
889.739 km
Perigee altitude
836.706 km
Semi-major axis
7,241.359 km
Eccentricity
0.00366
Inclination
82.7843°
RAAN
351.604°
Arg. of periapsis
162.1889°
True anomaly
350.69584°
Mean anomaly
350.7635°
Eccentric anomaly
350.7297°
Mean motion
3.52219 °/min
Orbital period
102.21 mins
BSTAR
0.00072502
Loading maneuver chart data...
Computing Atmospheric mass density...

Documentation

Showing up to 5 results
|